This is the latest recevied weather packets stored in our database for station/object PY2UTU-WX. If no packets are shown the sender has not sent any weather packets the latest 10 day(s).
| Time | Temp. | Humidity | Pressure | Rain* | Wind** | Luminosity | Snow |
|---|---|---|---|---|---|---|---|
| 1777728443 | 26.11° C | 98% | 926.1 hPa | - | - | - | - |
| 1777727543 | 25.56° C | 98% | 926.2 hPa | - | - | - | - |
| 1777726643 | 25.56° C | 98% | 926.1 hPa | - | - | - | - |
| 1777725743 | 25° C | 98% | 926.2 hPa | - | - | - | - |
| 1777724843 | 24.44° C | 98% | 926.1 hPa | - | - | - | - |
| 1777723943 | 25° C | 98% | 926.1 hPa | - | - | - | - |
| 1777723043 | 24.44° C | 98% | 926.1 hPa | - | - | - | - |
| 1777722143 | 23.89° C | 98% | 926 hPa | - | - | - | - |
| 1777721243 | 23.89° C | 98% | 926 hPa | - | - | - | - |
| 1777720343 | 24.44° C | 98% | 926 hPa | - | - | - | - |
| 1777719443 | 24.44° C | 98% | 925.9 hPa | - | - | - | - |
| 1777718543 | 25° C | 98% | 925.7 hPa | - | - | - | - |
| 1777717643 | 23.89° C | 98% | 925.3 hPa | - | - | - | - |
| 1777716743 | 23.89° C | 98% | 925.1 hPa | - | - | - | - |
| 1777715843 | 23.89° C | 98% | 924.9 hPa | - | - | - | - |
| 1777714943 | 23.33° C | 98% | 924.7 hPa | - | - | - | - |
| 1777714043 | 23.33° C | 98% | 924.5 hPa | - | - | - | - |
| 1777713143 | 23.33° C | 98% | 924.3 hPa | - | - | - | - |
| 1777712243 | 23.33° C | 98% | 924.1 hPa | - | - | - | - |
| 1777711343 | 23.33° C | 98% | 923.9 hPa | - | - | - | - |
| 1777710443 | 23.33° C | 98% | 923.6 hPa | - | - | - | - |
| 1777709543 | 23.33° C | 98% | 923.3 hPa | - | - | - | - |
| 1777708643 | 23.89° C | 98% | 923.2 hPa | - | - | - | - |
| 1777707743 | 23.33° C | 98% | 923.3 hPa | - | - | - | - |
| 1777706843 | 23.33° C | 98% | 923.2 hPa | - | - | - | - |
* Rain since midnight (hover to see other rain measurements)
** Current wind speed in m/s (hover to see current wind gust speed)